Weather History for Homestead AFB, FL

Change the Weather History Date:

Tuesday, January 22, 2013

  Actual Average Record
Temperature  
Mean Temperature 69 °F -  
Max Temperature 77 °F 73 °F 86 °F (1943)
Min Temperature 61 °F 53 °F 29 °F (1960)
Cooling Degree Days 4    
Growing Degree Days 19 (Base 50)    
Moisture  
Dew Point 59 °F    
Average Humidity 78    
Maximum Humidity 94    
Minimum Humidity 58    
Precipitation  
Precipitation 0.00 in - - ()
Sea Level Pressure  
Sea Level Pressure 30.11 in    
Wind  
Wind Speed 8 mph (NNW)    
Max Wind Speed 16 mph    
Max Gust Speed -    
Visibility 10 miles    
Events      
Averages and records for this station are not official NWS values.
T = Trace of Precipitation, MM = Missing Value Source: NWS Daily Summary

Daily Weather History Graph

Daily Weather History Graph

Search for Another Location

Airport:

Trip Planner

Search our weather history database for the weather conditions in past years. The results will help you decide how hot, cold, wet, or windy it might be!

Date:

Astronomy

Jan. 22, 2013 Rise Set
Actual Time 7:08 AM EST 5:58 PM EST
Civil Twilight 6:43 AM EST 6:22 PM EST
Nautical Twilight 6:15 AM EST 6:50 PM EST
Astronomical Twilight 5:48 AM EST 7:18 PM EST
Moon 2:24 PM EST (1/22) 3:24 AM EST (1/22)
Length of Visible Light 11h 38m
Length of Day
10h 50m
Waxing Gibbous, 82% of the Moon is Illuminated
Jan 22
Waxing Gibbous
Jan 26
Full
Feb 3
Last Quarter
Feb 10
New
Feb 17
First Quarter

Hourly Weather History & Observations

Time (EST) Temp. Dew Point Humidity Pressure Visibility Wind Dir Wind Speed Gust Speed Precip Events Conditions
12:55 AM 64.4 °F 61.7 °F 91% 30.06 in 10.0 mi NW 5.8 mph - N/A   Clear
1:55 AM 63.7 °F 61.3 °F 92% 30.05 in 10.0 mi WNW 5.8 mph - N/A   Partly Cloudy
2:55 AM 63.7 °F 61.2 °F 91% 30.04 in 10.0 mi WNW 5.8 mph - N/A   Clear
3:55 AM 62.6 °F 60.3 °F 92% 30.04 in 10.0 mi WNW 3.5 mph - N/A   Clear
4:55 AM 61.7 °F 59.7 °F 93% 30.04 in 10.0 mi WNW 4.6 mph - N/A   Clear
5:25 AM 62.6 °F 60.8 °F 94% 30.05 in 10.0 mi NW 8.1 mph - N/A   Mostly Cloudy
5:30 AM 62.6 °F 60.8 °F 94% 30.06 in 10.0 mi NW 9.2 mph - N/A   Scattered Clouds
5:55 AM 62.2 °F 60.1 °F 93% 30.06 in 10.0 mi NW 5.8 mph - N/A   Partly Cloudy
6:55 AM 62.1 °F 60.1 °F 93% 30.09 in 10.0 mi NW 9.2 mph - N/A   Clear
7:55 AM 62.2 °F 59.9 °F 92% 30.11 in 10.0 mi NW 9.2 mph - N/A   Clear
8:55 AM 64.4 °F 59.4 °F 84% 30.12 in 10.0 mi NNW 10.4 mph - N/A   Clear
9:55 AM 68.2 °F 59.0 °F 72% 30.14 in 10.0 mi North 15.0 mph - N/A   Clear
10:55 AM 72.1 °F 60.3 °F 66% 30.14 in 10.0 mi North 11.5 mph - N/A   Clear
11:55 AM 74.5 °F 61.3 °F 63% 30.13 in 10.0 mi NNW 13.8 mph - N/A   Clear
2:55 PM 77.0 °F 61.5 °F 59% 30.09 in 10.0 mi North 12.7 mph - N/A   Clear
3:55 PM 76.5 °F 60.4 °F 58% 30.10 in 10.0 mi North 16.1 mph - N/A   Partly Cloudy
4:55 PM 74.8 °F 60.1 °F 60% 30.12 in 10.0 mi NNW 12.7 mph - N/A   Partly Cloudy
5:55 PM 73.2 °F 59.4 °F 62% 30.15 in 10.0 mi NNE 10.4 mph - N/A   Mostly Cloudy
6:55 PM 70.3 °F 58.5 °F 66% 30.16 in 10.0 mi NNE 10.4 mph - N/A   Clear
7:55 PM 68.9 °F 57.6 °F 67% 30.17 in 10.0 mi North 9.2 mph - N/A   Clear
8:55 PM 67.5 °F 56.7 °F 68% 30.19 in 10.0 mi North 10.4 mph - N/A   Partly Cloudy
9:55 PM 65.5 °F 55.6 °F 70% 30.21 in 10.0 mi NNW 9.2 mph - N/A   Mostly Cloudy
10:55 PM 64.2 °F 55.0 °F 72% 30.22 in 10.0 mi NNW 9.2 mph - N/A   Scattered Clouds
11:55 PM 63.0 °F 55.0 °F 75% 30.21 in 10.0 mi North 8.1 mph - N/A   Clear